{"data":{"norad_id":64253,"epoch":"2026-05-24T15:31:01.244352Z","epoch_age_seconds":104961,"freshness":"FRESH","line1":"1 64253U 25119W   26144.64654218  .00011507  00000+0  42693-3 0  9991","line2":"2 64253  43.0007 238.2829 0000685 260.4077  99.6698 15.27588290 55784","mean_motion":15.2758829,"eccentricity":6.85e-5,"inclination_deg":43.0007,"raan_deg":238.2829,"arg_perigee_deg":260.4077,"mean_anomaly_deg":99.6698,"bstar":0.00042693,"rev_number":5578,"period_min":94.266237141684,"perigee_km":482.55428336241,"apogee_km":483.4942624568,"semimajor_km":6861.1612729096,"source":"CELESTRAK","updated_at":"2026-05-25T13:38:20.355617Z"}}